FW8282 Weather Reports


Display with metric or nautical units.
time (UTC)temp
F
wind
direction
speed
MPH
gust
MPH
rain 1hr
in
rain 24hr
in
rain mn
in
humidity
%
barometer
mb
20260506160700 87 239 0.0 0.0 0.00 0.00 0.00 63 1016.2
20260506160157 87 189 0.0 0.0 0.00 0.00 0.00 63 1016.2
20260506155655 87 200 0.0 0.0 0.00 0.00 0.00 64 1016.5
20260506155152 87 181 0.0 0.0 0.00 0.00 0.00 66 1016.2
20260506153254 86 193 0.0 1.0 0.00 0.00 0.00 66 1015.9
20260506152750 85 183 0.0 0.0 0.00 0.00 0.00 66 1016.1
20260506152248 86 253 1.0 5.0 0.00 0.00 0.00 66 1016.1
20260506151747 86 171 0.0 0.0 0.00 0.00 0.00 66 1016.1
20260506151243 86 220 0.0 2.0 0.00 0.00 0.00 65 1016.3
20260506150740 85 162 0.0 0.0 0.00 0.00 0.00 68 1015.8
20260506150237 85 165 0.0 0.0 0.00 0.00 0.00 70 1016.2
20260506145734 84 188 0.0 0.0 0.00 0.00 0.00 71 1016.2
20260506145230 84 202 0.0 0.0 0.00 0.00 0.00 70 1016.1
20260506144728 84 207 0.0 0.0 0.00 0.00 0.00 71 1016.2
20260506144225 83 219 1.0 1.0 0.00 0.00 0.00 71 1016.1
20260506143722 85 204 0.0 0.0 0.00 0.00 0.00 72 1016.0
20260506143219 84 169 0.0 0.0 0.00 0.00 0.00 72 1016.3
20260506142718 84 167 0.0 0.0 0.00 0.00 0.00 72 1016.1
20260506142216 84 153 0.0 0.0 0.00 0.00 0.00 73 1016.0
20260506141713 82 205 0.0 0.0 0.00 0.00 0.00 74 1016.2
20260506141211 83 223 0.0 0.0 0.00 0.00 0.00 74 1016.2
20260506140709 82 109 0.0 0.0 0.00 0.00 0.00 76 1016.1
20260506140206 81 230 0.0 0.0 0.00 0.00 0.00 76 1016.0
20260506135702 81 234 0.0 0.0 0.00 0.00 0.00 78 1016.0
20260506135159 80 158 0.0 0.0 0.00 0.00 0.00 79 1016.0
20260506134655 80 153 0.0 0.0 0.00 0.00 0.00 79 1015.9
20260506134151 80 150 0.0 0.0 0.00 0.00 0.00 80 1016.0
20260506133649 79 112 0.0 0.0 0.00 0.00 0.00 81 1016.2
20260506133145 78 160 0.0 0.0 0.00 0.00 0.00 81 1015.9
20260506132643 78 158 0.0 0.0 0.00 0.00 0.00 82 1016.0
20260506132139 77 200 0.0 0.0 0.00 0.00 0.00 83 1016.1
20260506131637 77 94 0.0 0.0 0.00 0.00 0.00 84 1016.1
20260506131133 77 222 0.0 0.0 0.00 0.00 0.00 84 1016.0
20260506130630 77 239 0.0 0.0 0.00 0.00 0.00 85 1016.1
20260506130128 76 162 0.0 0.0 0.00 0.00 0.00 85 1015.9
20260506125626 75 146 0.0 0.0 0.00 0.00 0.00 87 1015.8
20260506125123 74 175 0.0 0.0 0.00 0.00 0.00 89 1015.8
20260506124621 73 131 0.0 0.0 0.00 0.00 0.00 91 1015.9
20260506124119 72 150 0.0 0.0 0.00 0.00 0.00 91 1015.6
20260506123616 71 159 0.0 0.0 0.00 0.00 0.00 92 1015.7
20260506123115 70 197 0.0 0.0 0.00 0.00 0.00 92 1015.6
20260506122611 70 166 0.0 0.0 0.00 0.00 0.00 93 1015.5
20260506122109 69 124 0.0 0.0 0.00 0.00 0.00 93 1015.6
20260506121606 68 174 0.0 0.0 0.00 0.00 0.00 94 1015.5
20260506121102 68 157 0.0 0.0 0.00 0.00 0.00 94 1015.3
20260506120601 67 151 0.0 0.0 0.00 0.00 0.00 94 1015.4
20260506120057 67 154 0.0 0.0 0.00 0.00 0.00 95 1015.4
20260506115556 66 129 0.0 0.0 0.00 0.00 0.00 95 1015.2
20260506115054 66 156 0.0 0.0 0.00 0.00 0.00 95 1015.1
20260506114550 65 144 0.0 0.0 0.00 0.00 0.00 95 1015.0
20260506114049 65 153 0.0 0.0 0.00 0.00 0.00 95 1015.3
20260506113546 64 136 0.0 0.0 0.00 0.00 0.00 96 1015.3
20260506113044 64 140 0.0 0.0 0.00 0.00 0.00 95 1015.1
20260506112540 64 144 0.0 0.0 0.00 0.00 0.00 95 1015.0
20260506112037 63 145 0.0 0.0 0.00 0.00 0.00 95 1015.2
20260506111535 63 148 0.0 0.0 0.00 0.00 0.00 95 1015.0
20260506111032 63 139 0.0 0.0 0.00 0.00 0.00 95 1015.2
20260506110530 63 147 0.0 0.0 0.00 0.00 0.00 95 1015.1
20260506110027 63 161 0.0 0.0 0.00 0.00 0.00 95 1015.0
20260506105523 63 162 0.0 0.0 0.00 0.00 0.00 95 1015.0
20260506105020 63 161 0.0 0.0 0.00 0.00 0.00 95 1014.8
20260506104518 63 169 0.0 0.0 0.00 0.00 0.00 95 1014.7
20260506104016 63 161 0.0 0.0 0.00 0.00 0.00 95 1014.9
20260506103513 63 147 0.0 0.0 0.00 0.00 0.00 95 1014.7
20260506103010 63 161 0.0 0.0 0.00 0.00 0.00 95 1014.8
20260506102508 63 161 0.0 0.0 0.00 0.00 0.00 95 1014.7
20260506102005 63 169 0.0 0.0 0.00 0.00 0.00 95 1014.5
20260506101501 63 161 0.0 0.0 0.00 0.00 0.00 95 1014.4
20260506100959 64 161 0.0 0.0 0.00 0.00 0.00 95 1014.5
20260506100457 63 161 0.0 0.0 0.00 0.00 0.00 95 1014.4
20260506095955 64 148 0.0 0.0 0.00 0.00 0.00 95 1014.5
20260506095453 63 151 0.0 0.0 0.00 0.00 0.00 95 1014.5
20260506094949 63 150 0.0 0.0 0.00 0.00 0.00 95 1014.7
20260506094447 64 140 0.0 0.0 0.00 0.00 0.00 94 1014.4
20260506093944 64 150 0.0 0.0 0.00 0.00 0.00 94 1014.5
20260506093443 63 161 0.0 0.0 0.00 0.00 0.00 94 1014.6
20260506092940 63 162 0.0 0.0 0.00 0.00 0.00 94 1014.3
20260506092438 63 169 0.0 0.0 0.00 0.00 0.00 94 1014.4
20260506091934 64 148 0.0 0.0 0.00 0.00 0.00 94 1014.3
20260506091433 64 140 0.0 0.0 0.00 0.00 0.00 94 1014.5
20260506090929 64 161 0.0 0.0 0.00 0.00 0.00 94 1014.5
20260506090427 64 159 0.0 0.0 0.00 0.00 0.00 94 1014.5
20260506085923 64 159 0.0 0.0 0.00 0.00 0.00 94 1014.3
20260506085420 64 169 0.0 0.0 0.00 0.00 0.00 94 1014.3
20260506084916 64 166 0.0 0.0 0.00 0.00 0.00 94 1014.2
20260506084414 64 162 0.0 0.0 0.00 0.00 0.00 94 1014.1
20260506083910 64 161 0.0 0.0 0.00 0.00 0.00 94 1014.4
20260506083407 64 161 0.0 0.0 0.00 0.00 0.00 93 1014.3
20260506082905 64 141 0.0 0.0 0.00 0.00 0.00 94 1014.6
20260506082401 64 161 0.0 0.0 0.00 0.00 0.00 93 1014.2
20260506081857 65 150 0.0 0.0 0.00 0.00 0.00 93 1014.3
20260506081355 64 162 0.0 0.0 0.00 0.00 0.00 93 1014.3
20260506080852 64 162 0.0 0.0 0.00 0.00 0.00 93 1014.3
20260506080349 64 162 0.0 0.0 0.00 0.00 0.00 93 1014.3
20260506073333 64 149 0.0 0.0 0.00 0.00 0.00 92 1014.6
20260506072830 64 148 0.0 0.0 0.00 0.00 0.00 92 1014.8
20260506072328 65 141 0.0 0.0 0.00 0.00 0.00 92 1014.5
20260506071825 65 146 0.0 0.0 0.00 0.00 0.00 92 1014.6
20260506071323 65 139 0.0 0.0 0.00 0.00 0.00 92 1014.6
20260506070820 65 152 0.0 0.0 0.00 0.00 0.00 92 1014.7
20260506070317 65 151 0.0 0.0 0.00 0.00 0.00 92 1014.7
20260506062254 66 150 0.0 0.0 0.00 0.00 0.00 89 1015.2
20260506061750 66 150 0.0 0.0 0.00 0.00 0.00 89 1015.0
20260506061247 66 137 0.0 0.0 0.00 0.00 0.00 89 1014.8
20260506060745 66 148 0.0 0.0 0.00 0.00 0.00 89 1015.0
20260506060243 67 144 0.0 0.0 0.00 0.00 0.00 88 1014.9
20260506051214 68 152 0.0 0.0 0.00 0.00 0.00 86 1015.0
20260506050713 68 152 0.0 0.0 0.00 0.00 0.00 85 1015.3
20260506050209 68 148 0.0 0.0 0.00 0.00 0.00 85 1015.4
20260506044701 69 145 0.0 0.0 0.00 0.00 0.00 82 1015.7
20260506044157 69 147 0.0 0.0 0.00 0.00 0.00 81 1015.5
20260506043654 70 146 0.0 0.0 0.00 0.00 0.00 80 1015.7
20260506043152 70 148 0.0 0.0 0.00 0.00 0.00 80 1015.9
20260506042651 70 142 0.0 0.0 0.00 0.00 0.00 79 1015.8
20260506042149 71 139 0.0 0.0 0.00 0.00 0.00 78 1015.5
20260506041652 71 143 0.0 0.0 0.00 0.00 0.00 78 1015.6
20260506041143 71 151 0.0 0.0 0.00 0.00 0.00 77 1015.7
20260506040641 72 152 0.0 0.0 0.00 0.00 0.00 77 1015.5
20260506040138 72 156 0.0 0.0 0.00 0.00 0.00 77 1015.5
20260506035635 72 157 0.0 0.0 0.00 0.00 0.00 76 1015.6
20260506035131 73 152 0.0 0.0 0.00 0.00 0.00 76 1015.5
20260506034629 73 155 0.0 0.0 0.00 0.00 0.00 75 1015.3
20260506034126 73 151 0.0 0.0 0.00 0.00 0.00 75 1015.4
20260506033623 73 146 0.0 0.0 0.00 0.00 0.00 75 1015.4
20260506033120 73 152 0.0 0.0 0.00 0.00 0.00 74 1015.4
20260506032617 73 135 0.0 0.0 0.00 0.00 0.00 74 1015.4
20260506032114 74 155 0.0 0.0 0.00 0.00 0.00 73 1015.2
20260506031611 74 127 0.0 0.0 0.00 0.00 0.00 72 1015.2
20260506031108 75 158 0.0 0.0 0.00 0.00 0.00 71 1015.3
20260506030607 75 165 0.0 0.0 0.00 0.00 0.00 71 1015.0
20260506030103 75 103 0.0 0.0 0.00 0.00 0.00 71 1015.2
20260506025600 75 153 0.0 0.0 0.00 0.00 0.00 71 1015.1
20260506025056 76 142 0.0 0.0 0.00 0.00 0.00 70 1015.2
20260506024554 76 137 0.0 0.0 0.00 0.00 0.00 70 1015.2
20260506024050 76 155 0.0 0.0 0.00 0.00 0.00 71 1014.8
20260506023546 75 151 0.0 0.0 0.00 0.00 0.00 72 1015.1
20260506023044 75 145 0.0 0.0 0.00 0.00 0.00 73 1015.0
20260506022541 75 150 0.0 0.0 0.00 0.00 0.00 73 1014.9
20260506022038 75 147 0.0 0.0 0.00 0.00 0.00 74 1015.1
20260506021536 75 159 0.0 0.0 0.00 0.00 0.00 74 1014.7
20260506021033 74 151 0.0 0.0 0.00 0.00 0.00 76 1014.7
20260506020530 73 148 0.0 0.0 0.00 0.00 0.00 80 1014.8
20260506020027 73 143 0.0 0.0 0.00 0.00 0.00 83 1014.8
20260506015525 73 140 0.0 0.0 0.00 0.00 0.00 86 1015.1
20260506015022 73 152 0.0 0.0 0.00 0.00 0.00 86 1014.4
20260506014519 73 155 0.0 0.0 0.00 0.00 0.00 86 1014.6
20260506014015 73 156 0.0 0.0 0.00 0.00 0.00 86 1014.5
20260506013513 73 151 0.0 0.0 0.00 0.00 0.00 85 1014.5
20260506013010 73 126 0.0 0.0 0.00 0.00 0.00 83 1014.2
20260506012506 73 148 0.0 0.0 0.00 0.00 0.00 82 1014.3
20260506012003 74 138 0.0 0.0 0.00 0.00 0.00 81 1014.5
20260506011500 75 142 0.0 0.0 0.00 0.00 0.00 80 1014.4
20260506010956 74 146 0.0 0.0 0.00 0.00 0.00 79 1014.3
20260506010456 75 148 0.0 0.0 0.00 0.00 0.00 79 1014.1
20260506005951 75 146 0.0 0.0 0.00 0.00 0.00 78 1014.1
20260506005449 76 146 0.0 0.0 0.00 0.00 0.00 78 1014.1
20260506004944 76 132 0.0 0.0 0.00 0.00 0.00 77 1013.9
20260506004442 77 156 0.0 0.0 0.00 0.00 0.00 77 1013.8
20260506003938 77 217 0.0 0.0 0.00 0.00 0.00 77 1013.6
20260506003435 77 195 0.0 0.0 0.00 0.00 0.00 76 1013.8
20260506002931 78 170 0.0 0.0 0.00 0.00 0.00 76 1013.8
20260506002427 78 349 0.0 0.0 0.00 0.00 0.00 75 1013.5
20260506001923 78 211 0.0 0.0 0.00 0.00 0.00 74 1013.8
20260506001420 78 243 0.0 0.0 0.00 0.00 0.00 74 1013.4
20260506000918 78 317 0.0 0.0 0.00 0.00 0.00 74 1013.3
20260506000416 79 349 0.0 0.0 0.00 0.00 0.00 73 1013.3
20260505235912 79 237 0.0 0.0 0.00 0.00 0.00 72 1013.2
20260505235410 79 279 0.0 0.0 0.00 0.00 0.00 71 1013.3
20260505234906 80 252 2.0 6.0 0.00 0.00 0.00 70 1013.1
20260505234404 80 247 0.0 0.0 0.00 0.00 0.00 69 1013.3
20260505233900 80 241 0.0 0.0 0.00 0.00 0.00 69 1013.1
20260505233358 80 304 0.0 0.0 0.00 0.00 0.00 69 1013.1
20260505232855 81 291 4.0 6.0 0.00 0.00 0.00 68 1013.0
20260505232353 81 307 0.0 0.0 0.00 0.00 0.00 68 1012.9
20260505231850 81 226 0.0 0.0 0.00 0.00 0.00 67 1013.3
20260505231347 82 303 3.0 5.0 0.00 0.00 0.00 66 1013.3
20260505230845 82 243 0.0 0.0 0.00 0.00 0.00 66 1012.9
20260505230342 82 261 0.0 0.0 0.00 0.00 0.00 65 1013.2
20260505225839 82 259 0.0 1.0 0.00 0.00 0.00 63 1013.1
20260505225336 83 349 0.0 0.0 0.00 0.00 0.00 63 1013.2
20260505224831 83 272 3.0 5.0 0.00 0.00 0.00 62 1013.2
20260505224329 84 283 0.0 0.0 0.00 0.00 0.00 62 1013.2
20260505223826 84 30 3.0 7.0 0.00 0.00 0.00 61 1013.2
20260505223323 84 238 1.0 3.0 0.00 0.00 0.00 61 1013.2
20260505222819 85 9 0.0 0.0 0.00 0.00 0.00 61 1013.2
20260505222315 86 264 0.0 0.0 0.00 0.00 0.00 59 1013.1
20260505221812 86 11 0.0 0.0 0.00 0.00 0.00 58 1013.0
20260505221309 87 257 4.0 6.0 0.00 0.00 0.00 51 1013.2
20260505220806 88 342 3.0 5.0 0.00 0.00 0.00 46 1012.7
20260505220303 87 272 0.0 0.0 0.00 0.00 0.00 47 1013.1
20260505215801 88 283 0.0 0.0 0.00 0.00 0.00 45 1013.0
20260505215259 89 264 0.0 0.0 0.00 0.00 0.00 43 1012.9
20260505214756 90 272 0.0 0.0 0.00 0.00 0.00 45 1012.9
20260505214253 90 190 0.0 0.0 0.00 0.00 0.00 43 1012.9
20260505213751 89 190 0.0 0.0 0.00 0.00 0.00 47 1012.9
20260505213248 88 168 0.0 0.0 0.00 0.00 0.00 44 1013.0
20260505212743 88 209 0.0 0.0 0.00 0.00 0.00 44 1012.8
20260505212241 88 350 0.0 0.0 0.00 0.00 0.00 45 1013.1
20260505211738 88 253 1.0 3.0 0.00 0.00 0.00 46 1012.9
20260505211235 88 228 0.0 0.0 0.00 0.00 0.00 44 1012.9
20260505210732 87 58 0.0 0.0 0.00 0.00 0.00 45 1013.0
20260505210228 88 329 0.0 0.0 0.00 0.00 0.00 46 1012.9
20260505205726 88 196 0.0 0.0 0.00 0.00 0.00 45 1012.9
20260505205224 90 180 0.0 0.0 0.00 0.00 0.00 43 1013.0
20260505204720 90 106 0.0 0.0 0.00 0.00 0.00 44 1012.8
20260505204218 89 162 0.0 0.0 0.00 0.00 0.00 44 1012.9
20260505203715 89 159 0.0 0.0 0.00 0.00 0.00 47 1012.9
20260505203212 88 188 0.0 0.0 0.00 0.00 0.00 46 1013.0
20260505202708 87 203 0.0 0.0 0.00 0.00 0.00 45 1013.0
20260505202204 88 164 0.0 0.0 0.00 0.00 0.00 46 1013.1
20260505201700 87 276 0.0 0.0 0.00 0.00 0.00 47 1013.1
20260505201159 87 297 1.0 2.0 0.00 0.00 0.00 45 1013.1
20260505200657 90 239 0.0 0.0 0.00 0.00 0.00 43 1013.2
20260505200153 90 170 0.0 0.0 0.00 0.00 0.00 40 1013.3
20260505195649 91 147 0.0 0.0 0.00 0.00 0.00 41 1013.2
20260505195146 90 144 0.0 0.0 0.00 0.00 0.00 44 1013.4
20260505194644 87 218 0.0 0.0 0.00 0.00 0.00 46 1013.4
20260505194139 88 219 0.0 0.0 0.00 0.00 0.00 46 1013.3
20260505193636 88 194 0.0 0.0 0.00 0.00 0.00 49 1013.5
20260505193133 89 155 0.0 0.0 0.00 0.00 0.00 47 1013.6
20260505192632 89 164 0.0 0.0 0.00 0.00 0.00 45 1013.4
20260505192129 90 204 0.0 0.0 0.00 0.00 0.00 44 1013.5
20260505191627 89 193 0.0 0.0 0.00 0.00 0.00 45 1013.7
20260505191125 87 204 0.0 0.0 0.00 0.00 0.00 50 1013.7
20260505190621 90 111 0.0 0.0 0.00 0.00 0.00 45 1013.7
20260505190115 89 185 0.0 0.0 0.00 0.00 0.00 45 1013.7
20260505185613 86 213 0.0 0.0 0.00 0.00 0.00 48 1013.9
20260505185109 88 281 0.0 0.0 0.00 0.00 0.00 47 1014.1
20260505184606 88 180 0.0 0.0 0.00 0.00 0.00 47 1014.0
20260505184102 88 177 0.0 0.0 0.00 0.00 0.00 47 1014.2
20260505183559 88 157 0.0 0.0 0.00 0.00 0.00 48 1014.0
20260505183057 88 171 0.0 0.0 0.00 0.00 0.00 48 1014.0
20260505182553 89 186 0.0 0.0 0.00 0.00 0.00 47 1014.2
20260505182050 89 61 0.0 1.0 0.00 0.00 0.00 49 1014.2
20260505181546 89 167 0.0 0.0 0.00 0.00 0.00 50 1014.2
20260505181044 89 174 0.0 0.0 0.00 0.00 0.00 50 1014.4
20260505180539 88 138 0.0 0.0 0.00 0.00 0.00 49 1014.4
20260505180038 89 166 0.0 0.0 0.00 0.00 0.00 50 1014.4
20260505175537 87 182 0.0 0.0 0.00 0.00 0.00 50 1014.4
20260505175035 86 222 0.0 0.0 0.00 0.00 0.00 51 1014.6
20260505174532 84 117 0.0 0.0 0.00 0.00 0.00 53 1014.8
20260505174027 84 162 0.0 0.0 0.00 0.00 0.00 54 1015.0
20260505173525 84 68 0.0 0.0 0.00 0.00 0.00 53 1014.8
20260505173021 85 156 0.0 0.0 0.00 0.00 0.00 56 1015.0
20260505172519 86 140 0.0 0.0 0.00 0.00 0.00 53 1014.8
20260505172015 87 74 0.0 0.0 0.00 0.00 0.00 54 1015.0
20260505171510 87 135 1.0 2.0 0.00 0.00 0.00 53 1015.1
20260505171008 87 151 0.0 0.0 0.00 0.00 0.00 52 1015.2
20260505170504 84 132 0.0 0.0 0.00 0.00 0.00 57 1015.2
20260505170000 85 347 0.0 0.0 0.00 0.00 0.00 56 1015.4
20260505165456 84 182 0.0 0.0 0.00 0.00 0.00 55 1015.3
20260505164951 86 201 0.0 0.0 0.00 0.00 0.00 55 1015.1
20260505164448 87 53 0.0 0.0 0.00 0.00 0.00 52 1015.1
20260505163946 87 179 0.0 0.0 0.00 0.00 0.00 54 1015.2
20260505163444 87 157 0.0 0.0 0.00 0.00 0.00 53 1015.3
20260505162944 87 191 0.0 0.0 0.00 0.00 0.00 54 1015.2
20260505162439 86 133 0.0 0.0 0.00 0.00 0.00 56 1015.2
20260505161936 86 192 1.0 2.0 0.00 0.00 0.00 53 1015.2
20260505161432 87 81 0.0 0.0 0.00 0.00 0.00 54 1015.4